Content
SEND FEEDBACK

Daily
Averages
Monthly
Summary
United States of America

PUT IN BAY, OHIO


Home > North America > United States > Ohio
Elevation: 561 feet     Latitude: 41 39N     Longitude: 082 48W

WEATHER
 
SELECT A DAY
Number of Records: 122,510;   Date Range: 12/10/00 - 7/30/14
 
SHARE

PRINT THIS DATA

[ ← Previous Day ]
WEATHER ALMANAC - AUGUST 21, 2013
[ Next Day → ]
[ °C ]   °F
Weather ElementAverageHighLow
Temperature74.5 °F81.1 °F (3:00 pm)67.6 °F (7:00 am)
Dewpoint66.3 °F68.5 °F (11:00 pm)64 °F (6:00 am)
Humidity75.2 %89 % (7:00 am)59 % (2:00 pm)
Barometer30.08 in30.13 in (9:00 am)29.98 in (8:00 pm)
Wind Speed5.4 mph9.2 mph (2:00 pm)
Weather ElementAverage
Wind DirectionSSW (208.6 °)

Weather ElementTotal
Precipitation---
Cooling Degree Days9.3 (Base 65)
Growing Degree Days24.4 (Base 50)
Averaged from 22 records on August 21, 2013
WEATHER CONDITIONS BREAKOUT
WIND DIRECTION BREAKOUT
WEATHER BY HOUR - AUGUST 21, 2013
[ °C ]   °F
Local TimeTemperatureDewpointHumidityBarometerVisibilityWind DirectionWind SpeedGust SpeedPrecipitationEventsConditions
1:00 AM71.6 °F66.9 °F85 %30.09 inSouth (190°)4.6 mph
2:00 AM72.9 °F65.5 °F78 %30.09 inSSW (210°)5.8 mph
3:00 AM71.8 °F65.7 °F81 %30.09 inSSW (200°)4.6 mph
4:00 AM70.9 °F64.8 °F81 %30.09 inSSW (210°)3.5 mph
5:00 AM70.0 °F64.4 °F82 %30.09 inSW (220°)3.5 mph
6:00 AM68.7 °F64.0 °F85 %30.09 inSW (220°)2.3 mph
7:00 AM67.6 °F64.2 °F89 %30.11 inSW (220°)2.3 mph
8:00 AM71.0 °F65.0 °F78 %30.12 inSW (230°)2.3 mph
8:00 AM71.1 °F65.5 °F82 %30.12 inSW (230°)2.3 mph
9:00 AM73.4 °F65.5 °F76 %30.13 inWSW (240°)4.6 mph
10:00 AM75.6 °F65.8 °F72 %30.13 inSW (220°)5.8 mph
11:00 AM76.8 °F65.5 °F68 %30.12 inSW (220°)5.8 mph
12:00 PM78.1 °F66.2 °F67 %30.12 inSSW (210°)8.1 mph
1:00 PM79.7 °F67.1 °F65 %30.10 inSSW (210°)8.1 mph
2:00 PM80.0 °F68.0 °F59 %30.09 inSouth (190°)9.2 mph
2:00 PM80.2 °F68.2 °F67 %30.09 inSouth (190°)9.2 mph
3:00 PM81.1 °F67.5 °F63 %30.07 inSSW (200°)8.1 mph
8:00 PM75.9 °F66.7 °F73 %29.98 inSouth (170°)6.9 mph
8:00 PM76.0 °F67.0 °F66 %29.98 inSouth (170°)6.9 mph
9:00 PM75.4 °F68.2 °F78 %29.98 inSSW (200°)4.6 mph
10:00 PM75.4 °F68.4 °F79 %30.01 inSW (220°)4.6 mph
11:00 PM75.2 °F68.5 °F80 %30.02 inSW (220°)5.8 mph
Hourly data recorded from CXHA, located miles away from Put In Bay, Ohio







STORIES FROM OUR PARTNERS